Time,TemperatureF,DewpointF,PressureIn,WindDirection,WindDirectionDegrees,WindSpeedMPH,WindSpeedGustMPH,Humidity,HourlyPrecipIn,Conditions,Clouds,dailyrainin,SoftwareType,DateUTC
2013-11-03 00:00:00,31.7,31.0,29.95,NNW,337,2.0,4.0,95,0.00,,,0.19,Rainwise IP-100,2013-11-03 04:00:00,
2013-11-03 00:02:00,31.7,31.0,29.95,NNE,22,2.0,4.0,95,0.00,,,0.00,Rainwise IP-100,2013-11-03 04:02:00,
2013-11-03 00:03:00,31.8,31.0,29.95,NNE,22,1.0,4.0,95,0.00,,,0.00,Rainwise IP-100,2013-11-03 04:03:00,
2013-11-03 00:05:00,31.7,31.0,29.95,ENE,67,2.0,3.0,95,0.00,,,0.00,Rainwise IP-100,2013-11-03 04:05:00,
2013-11-03 00:06:00,31.6,31.0,29.95,NNE,22,3.0,4.0,95,0.00,,,0.00,Rainwise IP-100,2013-11-03 04:06:00,
2013-11-03 00:11:00,31.5,31.0,29.95,NE,45,2.0,4.0,95,0.00,,,0.00,Rainwise IP-100,2013-11-03 04:11:00,
2013-11-03 00:12:00,31.5,31.0,29.95,NE,45,3.0,7.0,95,0.00,,,0.00,Rainwise IP-100,2013-11-03 04:12:00,
2013-11-03 00:17:00,31.4,29.0,29.95,NE,45,6.0,7.0,95,0.00,,,0.00,Rainwise IP-100,2013-11-03 04:17:00,
2013-11-03 00:22:00,31.2,29.0,29.95,North,360,2.0,9.0,95,0.00,,,0.00,Rainwise IP-100,2013-11-03 04:22:00,
2013-11-03 00:27:00,31.1,29.0,29.95,North,360,1.0,6.0,95,0.00,,,0.00,Rainwise IP-100,2013-11-03 04:27:00,
2013-11-03 00:32:00,30.9,29.0,29.96,North,360,2.0,6.0,94,0.00,,,0.00,Rainwise IP-100,2013-11-03 04:32:00,
2013-11-03 00:37:00,30.9,29.0,29.96,North,360,2.0,2.0,94,0.00,,,0.00,Rainwise IP-100,2013-11-03 04:37:00,
2013-11-03 00:42:00,30.5,29.0,29.97,North,360,2.0,8.0,94,0.00,,,0.00,Rainwise IP-100,2013-11-03 04:42:00,
2013-11-03 00:47:00,30.5,29.0,29.97,North,360,2.0,4.0,94,0.00,,,0.00,Rainwise IP-100,2013-11-03 04:47:00,
2013-11-03 00:52:00,30.3,29.0,29.98,North,360,3.0,6.0,94,0.00,,,0.00,Rainwise IP-100,2013-11-03 04:52:00,
2013-11-03 00:57:00,30.1,29.0,29.98,North,360,3.0,6.0,94,0.00,,,0.00,Rainwise IP-100,2013-11-03 04:57:00,
2013-11-03 01:03:00,29.9,29.0,29.98,North,360,4.0,5.0,94,0.00,,,0.00,Rainwise IP-100,2013-11-03 05:03:00,
2013-11-03 01:08:00,29.7,29.0,29.98,North,360,2.0,6.0,94,0.00,,,0.00,Rainwise IP-100,2013-11-03 05:08:00,
2013-11-03 01:13:00,29.7,29.0,29.98,North,360,0.0,4.0,94,0.00,,,0.00,Rainwise IP-100,2013-11-03 05:13:00,
2013-11-03 01:18:00,29.6,29.0,29.98,North,360,0.0,4.0,94,0.00,,,0.00,Rainwise IP-100,2013-11-03 05:18:00,
2013-11-03 01:23:00,29.6,29.0,29.98,North,360,1.0,3.0,94,0.00,,,0.00,Rainwise IP-100,2013-11-03 05:23:00,
2013-11-03 01:28:00,29.5,29.0,29.99,North,360,2.0,7.0,94,0.00,,,0.00,Rainwise IP-100,2013-11-03 05:28:00,
2013-11-03 01:33:00,29.1,28.0,29.99,North,360,2.0,6.0,94,0.00,,,0.00,Rainwise IP-100,2013-11-03 05:33:00,
2013-11-03 01:38:00,28.9,28.0,29.99,North,360,2.0,4.0,94,0.00,,,0.00,Rainwise IP-100,2013-11-03 05:38:00,
2013-11-03 01:43:00,28.9,28.0,29.99,North,360,4.0,4.0,94,0.00,,,0.00,Rainwise IP-100,2013-11-03 05:43:00,
2013-11-03 01:48:00,28.8,28.0,30.00,North,360,2.0,6.0,94,0.00,,,0.00,Rainwise IP-100,2013-11-03 05:48:00,
2013-11-03 01:53:00,28.7,28.0,30.00,North,360,2.0,4.0,94,0.00,,,0.00,Rainwise IP-100,2013-11-03 05:53:00,
2013-11-03 01:58:00,28.5,28.0,29.99,North,360,4.0,5.0,94,0.00,,,0.00,Rainwise IP-100,2013-11-03 05:58:00,
2013-11-03 02:00:00,27.2,26.0,30.01,North,360,4.0,9.0,94,0.00,,,0.00,Rainwise IP-100,2013-11-03 07:00:00,
2013-11-03 02:05:00,27.0,26.0,30.01,North,360,2.0,9.0,94,0.00,,,0.00,Rainwise IP-100,2013-11-03 07:05:00,
2013-11-03 02:10:00,26.9,26.0,30.02,North,360,4.0,6.0,94,0.00,,,0.00,Rainwise IP-100,2013-11-03 07:10:00,
2013-11-03 02:16:00,26.7,26.0,30.02,North,360,3.0,6.0,94,0.00,,,0.00,Rainwise IP-100,2013-11-03 07:16:00,
2013-11-03 02:21:00,26.5,26.0,30.02,North,360,3.0,11.0,94,0.00,,,0.00,Rainwise IP-100,2013-11-03 07:21:00,
2013-11-03 02:26:00,26.3,24.0,30.03,North,360,6.0,6.0,93,0.00,,,0.00,Rainwise IP-100,2013-11-03 07:26:00,
2013-11-03 02:31:00,26.2,24.0,30.04,North,360,2.0,6.0,94,0.00,,,0.00,Rainwise IP-100,2013-11-03 07:31:00,
2013-11-03 02:36:00,26.1,24.0,30.04,North,360,4.0,5.0,94,0.00,,,0.00,Rainwise IP-100,2013-11-03 07:36:00,
2013-11-03 02:41:00,25.9,24.0,30.04,North,360,1.0,4.0,94,0.00,,,0.00,Rainwise IP-100,2013-11-03 07:41:00,
2013-11-03 02:46:00,25.8,24.0,30.04,North,360,1.0,9.0,94,0.00,,,0.00,Rainwise IP-100,2013-11-03 07:46:00,
2013-11-03 02:51:00,25.7,24.0,30.04,North,360,2.0,7.0,92,0.00,,,0.00,Rainwise IP-100,2013-11-03 07:51:00,
2013-11-03 02:56:00,25.6,24.0,30.04,North,360,1.0,5.0,94,0.00,,,0.00,Rainwise IP-100,2013-11-03 07:56:00,
2013-11-03 03:01:00,25.4,24.0,30.05,North,360,1.0,6.0,90,0.00,,,0.00,Rainwise IP-100,2013-11-03 08:01:00,
2013-11-03 03:06:00,25.2,24.0,30.05,North,360,1.0,6.0,92,0.00,,,0.00,Rainwise IP-100,2013-11-03 08:06:00,
2013-11-03 03:11:00,24.9,23.0,30.05,North,360,0.0,6.0,88,0.00,,,0.00,Rainwise IP-100,2013-11-03 08:11:00,
2013-11-03 03:17:00,24.8,23.0,30.05,North,360,2.0,5.0,88,0.00,,,0.00,Rainwise IP-100,2013-11-03 08:17:00,
2013-11-03 03:22:00,24.5,23.0,30.06,North,360,4.0,11.0,83,0.00,,,0.00,Rainwise IP-100,2013-11-03 08:22:00,
2013-11-03 03:27:00,24.4,21.0,30.06,North,360,0.0,6.0,87,0.00,,,0.00,Rainwise IP-100,2013-11-03 08:27:00,
2013-11-03 03:32:00,24.2,21.0,30.06,North,360,1.0,5.0,88,0.00,,,0.00,Rainwise IP-100,2013-11-03 08:32:00,
2013-11-03 03:37:00,23.9,21.0,30.06,North,360,1.0,7.0,86,0.00,,,0.00,Rainwise IP-100,2013-11-03 08:37:00,
2013-11-03 03:42:00,23.9,21.0,30.06,North,360,2.0,8.0,85,0.00,,,0.00,Rainwise IP-100,2013-11-03 08:42:00,
2013-11-03 03:47:00,23.8,21.0,30.07,North,360,1.0,11.0,83,0.00,,,0.00,Rainwise IP-100,2013-11-03 08:47:00,
2013-11-03 03:52:00,23.7,21.0,30.07,North,360,2.0,7.0,85,0.00,,,0.00,Rainwise IP-100,2013-11-03 08:52:00,
2013-11-03 03:57:00,23.7,21.0,30.08,North,360,1.0,7.0,86,0.00,,,0.00,Rainwise IP-100,2013-11-03 08:57:00,
2013-11-03 04:02:00,23.7,21.0,30.08,North,360,0.0,8.0,85,0.00,,,0.00,Rainwise IP-100,2013-11-03 09:02:00,
2013-11-03 04:07:00,23.6,21.0,30.08,North,360,0.0,4.0,84,0.00,,,0.00,Rainwise IP-100,2013-11-03 09:07:00,
2013-11-03 04:12:00,23.5,21.0,30.08,North,360,2.0,6.0,85,0.00,,,0.00,Rainwise IP-100,2013-11-03 09:12:00,
2013-11-03 04:18:00,23.5,21.0,30.09,North,360,2.0,6.0,84,0.00,,,0.00,Rainwise IP-100,2013-11-03 09:18:00,
2013-11-03 04:23:00,23.3,18.0,30.09,North,360,2.0,6.0,85,0.00,,,0.00,Rainwise IP-100,2013-11-03 09:23:00,
2013-11-03 04:28:00,23.1,18.0,30.10,North,360,3.0,6.0,85,0.00,,,0.00,Rainwise IP-100,2013-11-03 09:28:00,
2013-11-03 04:33:00,23.0,18.0,30.10,North,360,1.0,6.0,86,0.00,,,0.00,Rainwise IP-100,2013-11-03 09:33:00,
2013-11-03 04:38:00,22.9,21.0,30.10,North,360,0.0,5.0,89,0.00,,,0.00,Rainwise IP-100,2013-11-03 09:38:00,
2013-11-03 04:43:00,22.7,18.0,30.10,North,360,1.0,4.0,87,0.00,,,0.00,Rainwise IP-100,2013-11-03 09:43:00,
2013-11-03 04:48:00,22.8,18.0,30.11,North,360,4.0,8.0,85,0.00,,,0.00,Rainwise IP-100,2013-11-03 09:48:00,
2013-11-03 04:53:00,22.7,21.0,30.11,North,360,2.0,6.0,88,0.00,,,0.00,Rainwise IP-100,2013-11-03 09:53:00,
2013-11-03 04:58:00,22.2,21.0,30.11,North,360,3.0,4.0,88,0.00,,,0.00,Rainwise IP-100,2013-11-03 09:58:00,
2013-11-03 05:03:00,22.0,21.0,30.11,North,360,0.0,4.0,89,0.00,,,0.00,Rainwise IP-100,2013-11-03 10:03:00,
2013-11-03 05:08:00,21.9,21.0,30.11,North,360,0.0,3.0,89,0.00,,,0.00,Rainwise IP-100,2013-11-03 10:08:00,
2013-11-03 05:13:00,21.5,21.0,30.11,North,360,0.0,2.0,91,0.00,,,0.00,Rainwise IP-100,2013-11-03 10:13:00,
2013-11-03 05:19:00,21.2,18.0,30.13,North,360,0.0,0.0,93,0.00,,,0.00,Rainwise IP-100,2013-11-03 10:19:00,
2013-11-03 05:24:00,20.9,18.0,30.13,North,360,0.0,2.0,93,0.00,,,0.00,Rainwise IP-100,2013-11-03 10:24:00,
2013-11-03 05:29:00,20.7,18.0,30.13,North,360,0.0,2.0,93,0.00,,,0.00,Rainwise IP-100,2013-11-03 10:29:00,
2013-11-03 05:34:00,20.6,18.0,30.13,North,360,1.0,2.0,93,0.00,,,0.00,Rainwise IP-100,2013-11-03 10:34:00,
2013-11-03 05:39:00,20.5,18.0,30.13,North,360,0.0,2.0,93,0.00,,,0.00,Rainwise IP-100,2013-11-03 10:39:00,
2013-11-03 05:44:00,20.4,18.0,30.14,North,360,0.0,2.0,93,0.00,,,0.00,Rainwise IP-100,2013-11-03 10:44:00,
2013-11-03 05:49:00,20.1,18.0,30.14,North,360,0.0,2.0,93,0.00,,,0.00,Rainwise IP-100,2013-11-03 10:49:00,
2013-11-03 05:54:00,19.9,18.0,30.14,North,360,0.0,0.0,93,0.00,,,0.00,Rainwise IP-100,2013-11-03 10:54:00,
2013-11-03 05:59:00,19.8,18.0,30.14,North,360,1.0,2.0,93,0.00,,,0.00,Rainwise IP-100,2013-11-03 10:59:00,
2013-11-03 06:04:00,19.7,18.0,30.14,North,360,0.0,2.0,93,0.00,,,0.00,Rainwise IP-100,2013-11-03 11:04:00,
2013-11-03 06:09:00,19.6,18.0,30.15,North,360,1.0,2.0,93,0.00,,,0.00,Rainwise IP-100,2013-11-03 11:09:00,
2013-11-03 06:14:00,19.6,18.0,30.14,North,360,0.0,2.0,93,0.00,,,0.00,Rainwise IP-100,2013-11-03 11:14:00,
2013-11-03 06:20:00,19.4,18.0,30.15,North,360,1.0,2.0,93,0.00,,,0.00,Rainwise IP-100,2013-11-03 11:20:00,
2013-11-03 06:25:00,19.5,18.0,30.15,North,360,1.0,2.0,93,0.00,,,0.00,Rainwise IP-100,2013-11-03 11:25:00,
2013-11-03 06:30:00,19.4,18.0,30.15,North,360,0.0,2.0,93,0.00,,,0.00,Rainwise IP-100,2013-11-03 11:30:00,
2013-11-03 06:35:00,19.2,18.0,30.15,North,360,2.0,2.0,93,0.00,,,0.00,Rainwise IP-100,2013-11-03 11:35:00,
2013-11-03 06:40:00,19.2,18.0,30.16,North,360,1.0,2.0,93,0.00,,,0.00,Rainwise IP-100,2013-11-03 11:40:00,
2013-11-03 06:45:00,19.2,18.0,30.16,North,360,0.0,2.0,93,0.00,,,0.00,Rainwise IP-100,2013-11-03 11:45:00,
2013-11-03 06:50:00,19.4,18.0,30.17,North,360,0.0,2.0,93,0.00,,,0.00,Rainwise IP-100,2013-11-03 11:50:00,
2013-11-03 06:55:00,19.5,18.0,30.17,North,360,0.0,2.0,93,0.00,,,0.00,Rainwise IP-100,2013-11-03 11:55:00,
2013-11-03 07:00:00,19.7,18.0,30.17,North,360,2.0,2.0,93,0.00,,,0.00,Rainwise IP-100,2013-11-03 12:00:00,
2013-11-03 07:05:00,19.8,18.0,30.17,North,360,0.0,2.0,93,0.00,,,0.00,Rainwise IP-100,2013-11-03 12:05:00,
2013-11-03 07:10:00,19.8,18.0,30.18,North,360,0.0,0.0,93,0.00,,,0.00,Rainwise IP-100,2013-11-03 12:10:00,
2013-11-03 07:15:00,19.9,18.0,30.18,North,360,0.0,2.0,93,0.00,,,0.00,Rainwise IP-100,2013-11-03 12:15:00,
2013-11-03 07:21:00,20.2,18.0,30.19,North,360,1.0,2.0,93,0.00,,,0.00,Rainwise IP-100,2013-11-03 12:21:00,
2013-11-03 07:26:00,20.6,18.0,30.19,North,360,0.0,1.0,93,0.00,,,0.00,Rainwise IP-100,2013-11-03 12:26:00,
2013-11-03 07:31:00,20.9,18.0,30.19,North,360,0.0,0.0,93,0.00,,,0.00,Rainwise IP-100,2013-11-03 12:31:00,
2013-11-03 07:36:00,21.3,18.0,30.20,North,360,2.0,2.0,93,0.00,,,0.00,Rainwise IP-100,2013-11-03 12:36:00,
2013-11-03 07:41:00,21.6,21.0,30.19,North,360,1.0,2.0,93,0.00,,,0.00,Rainwise IP-100,2013-11-03 12:41:00,
2013-11-03 07:46:00,21.9,21.0,30.20,North,360,1.0,2.0,93,0.00,,,0.00,Rainwise IP-100,2013-11-03 12:46:00,
2013-11-03 07:51:00,22.5,21.0,30.20,North,360,1.0,2.0,92,0.00,,,0.00,Rainwise IP-100,2013-11-03 12:51:00,
2013-11-03 07:56:00,23.1,18.0,30.20,North,360,2.0,2.0,87,0.00,,,0.00,Rainwise IP-100,2013-11-03 12:56:00,
2013-11-03 08:01:00,23.2,18.0,30.21,North,360,0.0,2.0,85,0.00,,,0.00,Rainwise IP-100,2013-11-03 13:01:00,
2013-11-03 08:06:00,23.3,18.0,30.21,North,360,2.0,2.0,87,0.00,,,0.00,Rainwise IP-100,2013-11-03 13:06:00,
2013-11-03 08:11:00,23.3,18.0,30.21,North,360,1.0,3.0,86,0.00,,,0.00,Rainwise IP-100,2013-11-03 13:11:00,
2013-11-03 08:16:00,23.5,21.0,30.22,North,360,2.0,3.0,84,0.00,,,0.00,Rainwise IP-100,2013-11-03 13:16:00,
2013-11-03 08:22:00,23.9,21.0,30.22,North,360,1.0,2.0,83,0.00,,,0.00,Rainwise IP-100,2013-11-03 13:22:00,
2013-11-03 08:27:00,24.4,21.0,30.22,North,360,1.0,2.0,81,0.00,,,0.00,Rainwise IP-100,2013-11-03 13:27:00,
2013-11-03 08:32:00,25.1,21.0,30.22,North,360,1.0,6.0,81,0.00,,,0.00,Rainwise IP-100,2013-11-03 13:32:00,
2013-11-03 08:37:00,25.6,21.0,30.23,North,360,1.0,4.0,79,0.00,,,0.00,Rainwise IP-100,2013-11-03 13:37:00,
2013-11-03 08:42:00,25.8,21.0,30.23,North,360,1.0,7.0,80,0.00,,,0.00,Rainwise IP-100,2013-11-03 13:42:00,
2013-11-03 08:47:00,25.9,21.0,30.23,North,360,1.0,4.0,79,0.00,,,0.00,Rainwise IP-100,2013-11-03 13:47:00,
2013-11-03 08:52:00,25.9,21.0,30.24,North,360,2.0,4.0,78,0.00,,,0.00,Rainwise IP-100,2013-11-03 13:52:00,
2013-11-03 08:57:00,26.2,21.0,30.24,North,360,2.0,4.0,76,0.00,,,0.00,Rainwise IP-100,2013-11-03 13:57:00,
2013-11-03 09:02:00,26.5,23.0,30.24,NE,45,4.0,4.0,78,0.00,,,0.00,Rainwise IP-100,2013-11-03 14:02:00,
2013-11-03 09:07:00,26.6,21.0,30.23,East,90,3.0,5.0,72,0.00,,,0.00,Rainwise IP-100,2013-11-03 14:07:00,
2013-11-03 09:12:00,27.0,21.0,30.22,NE,45,1.0,6.0,75,0.00,,,0.00,Rainwise IP-100,2013-11-03 14:12:00,
2013-11-03 09:17:00,27.3,21.0,30.23,NE,45,2.0,6.0,76,0.00,,,0.00,Rainwise IP-100,2013-11-03 14:17:00,
2013-11-03 09:23:00,26.9,21.0,30.23,NE,45,2.0,7.0,72,0.00,,,0.00,Rainwise IP-100,2013-11-03 14:23:00,
2013-11-03 09:28:00,27.0,21.0,30.23,East,90,2.0,7.0,73,0.00,,,0.00,Rainwise IP-100,2013-11-03 14:28:00,
2013-11-03 09:33:00,27.2,21.0,30.23,NW,315,2.0,5.0,76,0.00,,,0.00,Rainwise IP-100,2013-11-03 14:33:00,
2013-11-03 09:38:00,27.4,21.0,30.23,North,360,2.0,4.0,72,0.00,,,0.00,Rainwise IP-100,2013-11-03 14:38:00,
2013-11-03 09:43:00,27.6,18.0,30.23,ENE,67,3.0,6.0,69,0.00,,,0.00,Rainwise IP-100,2013-11-03 14:43:00,
2013-11-03 09:48:00,27.9,21.0,30.24,North,360,2.0,6.0,72,0.00,,,0.00,Rainwise IP-100,2013-11-03 14:48:00,
2013-11-03 09:53:00,28.1,21.0,30.24,NE,45,4.0,6.0,70,0.00,,,0.00,Rainwise IP-100,2013-11-03 14:53:00,
2013-11-03 09:58:00,28.6,23.0,30.24,NE,45,2.0,8.0,73,0.00,,,0.00,Rainwise IP-100,2013-11-03 14:58:00,
2013-11-03 10:03:00,28.9,23.0,30.24,NE,45,1.0,6.0,72,0.00,,,0.00,Rainwise IP-100,2013-11-03 15:03:00,
2013-11-03 10:08:00,29.4,18.0,30.25,ESE,112,4.0,6.0,65,0.00,,,0.00,Rainwise IP-100,2013-11-03 15:08:00,
2013-11-03 10:13:00,28.9,21.0,30.25,WSW,247,9.0,9.0,69,0.00,,,0.00,Rainwise IP-100,2013-11-03 15:13:00,
2013-11-03 10:18:00,29.1,21.0,30.25,NE,45,0.0,9.0,68,0.00,,,0.00,Rainwise IP-100,2013-11-03 15:18:00,
2013-11-03 10:24:00,28.9,21.0,30.26,NE,45,0.0,2.0,71,0.00,,,0.00,Rainwise IP-100,2013-11-03 15:24:00,
2013-11-03 10:29:00,27.7,21.0,30.26,NW,315,7.0,9.0,72,0.00,,,0.00,Rainwise IP-100,2013-11-03 15:29:00,
2013-11-03 10:34:00,27.1,21.0,30.26,North,360,2.0,9.0,75,0.00,,,0.00,Rainwise IP-100,2013-11-03 15:34:00,
2013-11-03 10:39:00,27.0,21.0,30.26,North,360,2.0,5.0,72,0.00,,,0.00,Rainwise IP-100,2013-11-03 15:39:00,
2013-11-03 10:44:00,27.8,21.0,30.26,North,360,1.0,7.0,70,0.00,,,0.00,Rainwise IP-100,2013-11-03 15:44:00,
2013-11-03 10:49:00,28.4,18.0,30.26,NE,45,2.0,9.0,66,0.00,,,0.00,Rainwise IP-100,2013-11-03 15:49:00,
2013-11-03 10:54:00,28.8,21.0,30.27,NE,45,9.0,9.0,70,0.00,,,0.00,Rainwise IP-100,2013-11-03 15:54:00,
2013-11-03 10:59:00,28.9,21.0,30.26,West,270,2.0,9.0,71,0.00,,,0.00,Rainwise IP-100,2013-11-03 15:59:00,
2013-11-03 11:04:00,29.6,21.0,30.26,North,360,1.0,6.0,67,0.00,,,0.00,Rainwise IP-100,2013-11-03 16:04:00,
2013-11-03 11:09:00,28.3,18.0,30.26,NNE,22,2.0,9.0,67,0.00,,,0.00,Rainwise IP-100,2013-11-03 16:09:00,
2013-11-03 11:14:00,27.5,18.0,30.27,North,360,4.0,7.0,68,0.00,,,0.00,Rainwise IP-100,2013-11-03 16:14:00,
2013-11-03 11:19:00,28.5,21.0,30.26,NE,45,4.0,9.0,69,0.00,,,0.00,Rainwise IP-100,2013-11-03 16:19:00,
2013-11-03 11:25:00,29.5,21.0,30.26,North,360,3.0,8.0,67,0.00,,,0.00,Rainwise IP-100,2013-11-03 16:25:00,
2013-11-03 11:30:00,28.9,21.0,30.26,NW,315,7.0,10.0,67,0.00,,,0.00,Rainwise IP-100,2013-11-03 16:30:00,
2013-11-03 11:35:00,28.1,18.0,30.26,NW,315,2.0,11.0,68,0.00,,,0.00,Rainwise IP-100,2013-11-03 16:35:00,
2013-11-03 11:40:00,28.1,18.0,30.26,NE,45,2.0,9.0,69,0.00,,,0.00,Rainwise IP-100,2013-11-03 16:40:00,
2013-11-03 11:45:00,29.5,21.0,30.26,NW,315,2.0,8.0,66,0.00,,,0.00,Rainwise IP-100,2013-11-03 16:45:00,
2013-11-03 11:50:00,29.7,21.0,30.26,North,360,9.0,11.0,66,0.00,,,0.00,Rainwise IP-100,2013-11-03 16:50:00,
2013-11-03 11:55:00,28.9,18.0,30.27,NE,45,4.0,9.0,65,0.00,,,0.00,Rainwise IP-100,2013-11-03 16:55:00,
2013-11-03 12:00:00,29.4,21.0,30.26,SSE,157,2.0,4.0,67,0.00,,,0.00,Rainwise IP-100,2013-11-03 17:00:00,
2013-11-03 12:05:00,29.9,21.0,30.26,NW,315,5.0,9.0,66,0.00,,,0.00,Rainwise IP-100,2013-11-03 17:05:00,
2013-11-03 12:10:00,29.9,21.0,30.26,NE,45,3.0,7.0,66,0.00,,,0.00,Rainwise IP-100,2013-11-03 17:10:00,
2013-11-03 12:15:00,30.7,21.0,30.26,NW,315,4.0,9.0,63,0.00,,,0.00,Rainwise IP-100,2013-11-03 17:15:00,
2013-11-03 12:20:00,31.1,21.0,30.27,West,270,1.0,9.0,65,0.00,,,0.00,Rainwise IP-100,2013-11-03 17:20:00,
2013-11-03 12:26:00,30.4,21.0,30.27,NE,45,6.0,10.0,64,0.00,,,0.00,Rainwise IP-100,2013-11-03 17:26:00,
2013-11-03 12:31:00,29.5,21.0,30.27,North,360,6.0,11.0,62,0.00,,,0.00,Rainwise IP-100,2013-11-03 17:31:00,
2013-11-03 12:36:00,29.2,18.0,30.27,North,360,4.0,9.0,64,0.00,,,0.00,Rainwise IP-100,2013-11-03 17:36:00,
2013-11-03 12:41:00,30.4,21.0,30.27,NW,315,4.0,7.0,62,0.00,,,0.00,Rainwise IP-100,2013-11-03 17:41:00,
2013-11-03 12:46:00,30.6,18.0,30.27,West,270,1.0,9.0,61,0.00,,,0.00,Rainwise IP-100,2013-11-03 17:46:00,
2013-11-03 12:51:00,30.9,18.0,30.27,North,360,2.0,8.0,60,0.00,,,0.00,Rainwise IP-100,2013-11-03 17:51:00,
2013-11-03 12:56:00,30.6,18.0,30.27,North,360,2.0,7.0,61,0.00,,,0.00,Rainwise IP-100,2013-11-03 17:56:00,
2013-11-03 13:01:00,30.6,21.0,30.28,NE,45,1.0,6.0,62,0.00,,,0.00,Rainwise IP-100,2013-11-03 18:01:00,
2013-11-03 13:06:00,30.9,18.0,30.27,ENE,67,2.0,9.0,61,0.00,,,0.00,Rainwise IP-100,2013-11-03 18:06:00,
2013-11-03 13:11:00,31.4,18.0,30.28,North,360,7.0,9.0,59,0.00,,,0.00,Rainwise IP-100,2013-11-03 18:11:00,
2013-11-03 13:16:00,31.3,21.0,30.29,North,360,3.0,7.0,62,0.00,,,0.00,Rainwise IP-100,2013-11-03 18:16:00,
2013-11-03 13:21:00,31.9,18.0,30.28,NW,315,4.0,8.0,56,0.00,,,0.00,Rainwise IP-100,2013-11-03 18:21:00,
2013-11-03 13:27:00,31.9,18.0,30.28,NNE,22,3.0,9.0,55,0.00,,,0.00,Rainwise IP-100,2013-11-03 18:27:00,
2013-11-03 13:32:00,31.5,18.0,30.29,NNE,22,2.0,9.0,55,0.00,,,0.00,Rainwise IP-100,2013-11-03 18:32:00,
2013-11-03 13:37:00,31.2,18.0,30.29,NW,315,3.0,11.0,57,0.00,,,0.00,Rainwise IP-100,2013-11-03 18:37:00,
2013-11-03 13:42:00,30.8,18.0,30.29,West,270,1.0,6.0,59,0.00,,,0.00,Rainwise IP-100,2013-11-03 18:42:00,
2013-11-03 13:47:00,30.5,18.0,30.29,North,360,2.0,11.0,60,0.00,,,0.00,Rainwise IP-100,2013-11-03 18:47:00,
2013-11-03 13:52:00,30.6,18.0,30.29,NNW,337,2.0,9.0,58,0.00,,,0.00,Rainwise IP-100,2013-11-03 18:52:00,
2013-11-03 13:57:00,30.8,18.0,30.29,NNE,22,2.0,6.0,59,0.00,,,0.00,Rainwise IP-100,2013-11-03 18:57:00,
2013-11-03 14:02:00,30.6,18.0,30.30,NE,45,2.0,6.0,58,0.00,,,0.00,Rainwise IP-100,2013-11-03 19:02:00,
2013-11-03 14:07:00,31.0,18.0,30.30,NW,315,3.0,11.0,57,0.00,,,0.00,Rainwise IP-100,2013-11-03 19:07:00,
2013-11-03 14:12:00,30.7,18.0,30.31,North,360,4.0,8.0,56,0.00,,,0.00,Rainwise IP-100,2013-11-03 19:12:00,
2013-11-03 14:17:00,30.8,18.0,30.31,West,270,1.0,8.0,57,0.00,,,0.00,Rainwise IP-100,2013-11-03 19:17:00,
2013-11-03 14:22:00,30.7,18.0,30.31,NNE,22,3.0,6.0,57,0.00,,,0.00,Rainwise IP-100,2013-11-03 19:22:00,
2013-11-03 14:28:00,30.6,16.0,30.31,NE,45,5.0,9.0,55,0.00,,,0.00,Rainwise IP-100,2013-11-03 19:28:00,
2013-11-03 14:33:00,30.6,18.0,30.31,NE,45,6.0,9.0,56,0.00,,,0.00,Rainwise IP-100,2013-11-03 19:33:00,
2013-11-03 14:38:00,30.6,18.0,30.31,NW,315,3.0,7.0,56,0.00,,,0.00,Rainwise IP-100,2013-11-03 19:38:00,
2013-11-03 14:43:00,30.5,18.0,30.32,NW,315,6.0,10.0,59,0.00,,,0.00,Rainwise IP-100,2013-11-03 19:43:00,
2013-11-03 14:48:00,30.1,18.0,30.32,NNE,22,2.0,10.0,57,0.00,,,0.00,Rainwise IP-100,2013-11-03 19:48:00,
2013-11-03 14:53:00,30.6,18.0,30.32,North,360,3.0,5.0,57,0.00,,,0.00,Rainwise IP-100,2013-11-03 19:53:00,
2013-11-03 14:58:00,30.5,18.0,30.32,NW,315,2.0,9.0,56,0.00,,,0.00,Rainwise IP-100,2013-11-03 19:58:00,
2013-11-03 15:03:00,30.3,18.0,30.33,North,360,4.0,7.0,58,0.00,,,0.00,Rainwise IP-100,2013-11-03 20:03:00,
2013-11-03 15:08:00,29.9,18.0,30.32,NNW,337,3.0,8.0,57,0.00,,,0.00,Rainwise IP-100,2013-11-03 20:08:00,
2013-11-03 15:13:00,29.4,16.0,30.33,West,270,2.0,5.0,59,0.00,,,0.00,Rainwise IP-100,2013-11-03 20:13:00,
2013-11-03 15:18:00,29.1,16.0,30.33,North,360,1.0,6.0,59,0.00,,,0.00,Rainwise IP-100,2013-11-03 20:18:00,
2013-11-03 15:23:00,29.4,16.0,30.33,North,360,1.0,6.0,58,0.00,,,0.00,Rainwise IP-100,2013-11-03 20:23:00,
2013-11-03 15:29:00,30.0,18.0,30.33,NNE,22,1.0,6.0,56,0.00,,,0.00,Rainwise IP-100,2013-11-03 20:29:00,
2013-11-03 15:34:00,30.3,18.0,30.34,NW,315,1.0,6.0,57,0.00,,,0.00,Rainwise IP-100,2013-11-03 20:34:00,
2013-11-03 15:39:00,30.4,18.0,30.34,NNE,22,2.0,7.0,56,0.00,,,0.00,Rainwise IP-100,2013-11-03 20:39:00,
2013-11-03 15:44:00,29.7,16.0,30.34,North,360,7.0,9.0,55,0.00,,,0.00,Rainwise IP-100,2013-11-03 20:44:00,
2013-11-03 15:49:00,29.2,16.0,30.34,NE,45,6.0,9.0,57,0.00,,,0.00,Rainwise IP-100,2013-11-03 20:49:00,
2013-11-03 15:54:00,28.5,16.0,30.34,NW,315,6.0,6.0,58,0.00,,,0.00,Rainwise IP-100,2013-11-03 20:54:00,
2013-11-03 15:59:00,28.2,16.0,30.34,NNW,337,2.0,6.0,62,0.00,,,0.00,Rainwise IP-100,2013-11-03 20:59:00,
2013-11-03 16:04:00,27.9,16.0,30.34,North,360,2.0,5.0,62,0.00,,,0.00,Rainwise IP-100,2013-11-03 21:04:00,
2013-11-03 16:09:00,27.7,16.0,30.34,NW,315,2.0,2.0,62,0.00,,,0.00,Rainwise IP-100,2013-11-03 21:09:00,
2013-11-03 16:14:00,27.4,18.0,30.34,NNW,337,1.0,4.0,66,0.00,,,0.00,Rainwise IP-100,2013-11-03 21:14:00,
2013-11-03 16:19:00,26.9,18.0,30.34,North,360,3.0,3.0,67,0.00,,,0.00,Rainwise IP-100,2013-11-03 21:19:00,
2013-11-03 16:24:00,26.7,18.0,30.34,NNW,337,1.0,4.0,65,0.00,,,0.00,Rainwise IP-100,2013-11-03 21:24:00,
2013-11-03 16:30:00,26.4,16.0,30.34,North,360,2.0,4.0,67,0.00,,,0.00,Rainwise IP-100,2013-11-03 21:30:00,
2013-11-03 16:35:00,26.2,16.0,30.35,NW,315,2.0,4.0,66,0.00,,,0.00,Rainwise IP-100,2013-11-03 21:35:00,
2013-11-03 16:40:00,25.9,16.0,30.36,NW,315,2.0,3.0,65,0.00,,,0.00,Rainwise IP-100,2013-11-03 21:40:00,
2013-11-03 16:45:00,25.8,16.0,30.36,North,360,1.0,3.0,65,0.00,,,0.00,Rainwise IP-100,2013-11-03 21:45:00,
2013-11-03 16:50:00,25.7,16.0,30.36,North,360,2.0,4.0,65,0.00,,,0.00,Rainwise IP-100,2013-11-03 21:50:00,
2013-11-03 16:55:00,25.9,16.0,30.36,NW,315,0.0,4.0,64,0.00,,,0.00,Rainwise IP-100,2013-11-03 21:55:00,
2013-11-03 17:00:00,25.7,16.0,30.36,NE,45,0.0,5.0,66,0.00,,,0.00,Rainwise IP-100,2013-11-03 22:00:00,
2013-11-03 17:05:00,25.6,16.0,30.36,North,360,2.0,4.0,66,0.00,,,0.00,Rainwise IP-100,2013-11-03 22:05:00,
2013-11-03 17:10:00,25.3,16.0,30.36,North,360,1.0,2.0,67,0.00,,,0.00,Rainwise IP-100,2013-11-03 22:10:00,
2013-11-03 17:15:00,25.0,18.0,30.37,North,360,0.0,3.0,69,0.00,,,0.00,Rainwise IP-100,2013-11-03 22:15:00,
2013-11-03 17:20:00,24.8,18.0,30.37,North,360,3.0,4.0,69,0.00,,,0.00,Rainwise IP-100,2013-11-03 22:20:00,
2013-11-03 17:25:00,24.9,18.0,30.37,WNW,292,2.0,5.0,70,0.00,,,0.00,Rainwise IP-100,2013-11-03 22:25:00,
2013-11-03 17:31:00,24.7,18.0,30.37,WNW,292,2.0,2.0,72,0.00,,,0.00,Rainwise IP-100,2013-11-03 22:31:00,
2013-11-03 17:36:00,24.5,18.0,30.38,North,360,0.0,3.0,69,0.00,,,0.00,Rainwise IP-100,2013-11-03 22:36:00,
2013-11-03 17:41:00,24.3,16.0,30.38,North,360,0.0,2.0,73,0.00,,,0.00,Rainwise IP-100,2013-11-03 22:41:00,
2013-11-03 17:46:00,24.0,18.0,30.38,NW,315,1.0,2.0,79,0.00,,,0.00,Rainwise IP-100,2013-11-03 22:46:00,
2013-11-03 17:51:00,23.4,16.0,30.38,NW,315,1.0,2.0,78,0.00,,,0.00,Rainwise IP-100,2013-11-03 22:51:00,
2013-11-03 17:56:00,22.9,16.0,30.38,NW,315,1.0,2.0,79,0.00,,,0.00,Rainwise IP-100,2013-11-03 22:56:00,
2013-11-03 18:01:00,22.7,18.0,30.38,NW,315,2.0,2.0,82,0.00,,,0.00,Rainwise IP-100,2013-11-03 23:01:00,
2013-11-03 18:06:00,22.5,18.0,30.38,NW,315,1.0,2.0,81,0.00,,,0.00,Rainwise IP-100,2013-11-03 23:06:00,
2013-11-03 18:11:00,22.1,18.0,30.39,NW,315,0.0,2.0,84,0.00,,,0.00,Rainwise IP-100,2013-11-03 23:11:00,
2013-11-03 18:16:00,21.5,18.0,30.39,North,360,1.0,2.0,87,0.00,,,0.00,Rainwise IP-100,2013-11-03 23:16:00,
2013-11-03 18:21:00,21.1,18.0,30.40,North,360,2.0,2.0,88,0.00,,,0.00,Rainwise IP-100,2013-11-03 23:21:00,
2013-11-03 18:26:00,20.6,18.0,30.40,North,360,0.0,2.0,90,0.00,,,0.00,Rainwise IP-100,2013-11-03 23:26:00,
2013-11-03 18:32:00,20.4,18.0,30.40,North,360,0.0,0.0,89,0.00,,,0.00,Rainwise IP-100,2013-11-03 23:32:00,
2013-11-03 18:37:00,19.9,18.0,30.41,North,360,0.0,2.0,92,0.00,,,0.00,Rainwise IP-100,2013-11-03 23:37:00,
2013-11-03 18:42:00,19.9,18.0,30.41,North,360,2.0,2.0,92,0.00,,,0.00,Rainwise IP-100,2013-11-03 23:42:00,
2013-11-03 18:47:00,19.8,18.0,30.41,North,360,1.0,2.0,93,0.00,,,0.00,Rainwise IP-100,2013-11-03 23:47:00,
2013-11-03 18:52:00,19.8,18.0,30.41,North,360,0.0,1.0,93,0.00,,,0.00,Rainwise IP-100,2013-11-03 23:52:00,
2013-11-03 18:57:00,19.6,18.0,30.41,North,360,0.0,2.0,93,0.00,,,0.00,Rainwise IP-100,2013-11-03 23:57:00,
2013-11-03 19:02:00,18.9,18.0,30.41,North,360,2.0,2.0,93,0.00,,,0.00,Rainwise IP-100,2013-11-04 00:02:00,
2013-11-03 19:07:00,18.8,18.0,30.41,North,360,0.0,2.0,93,0.00,,,0.00,Rainwise IP-100,2013-11-04 00:07:00,
2013-11-03 19:12:00,18.9,18.0,30.41,North,360,0.0,0.0,93,0.00,,,0.00,Rainwise IP-100,2013-11-04 00:12:00,
2013-11-03 19:17:00,18.8,18.0,30.41,North,360,0.0,2.0,93,0.00,,,0.00,Rainwise IP-100,2013-11-04 00:17:00,
2013-11-03 19:22:00,18.6,18.0,30.42,North,360,0.0,2.0,93,0.00,,,0.00,Rainwise IP-100,2013-11-04 00:22:00,
2013-11-03 19:27:00,18.4,16.0,30.42,North,360,0.0,2.0,93,0.00,,,0.00,Rainwise IP-100,2013-11-04 00:27:00,
2013-11-03 19:33:00,18.3,16.0,30.42,North,360,0.0,0.0,93,0.00,,,0.00,Rainwise IP-100,2013-11-04 00:33:00,
2013-11-03 19:38:00,18.2,16.0,30.42,North,360,2.0,2.0,93,0.00,,,0.00,Rainwise IP-100,2013-11-04 00:38:00,
2013-11-03 19:43:00,17.9,16.0,30.42,North,360,0.0,2.0,93,0.00,,,0.00,Rainwise IP-100,2013-11-04 00:43:00,
2013-11-03 19:48:00,18.1,16.0,30.42,North,360,2.0,2.0,93,0.00,,,0.00,Rainwise IP-100,2013-11-04 00:48:00,
2013-11-03 19:53:00,17.9,16.0,30.43,NW,315,2.0,2.0,93,0.00,,,0.00,Rainwise IP-100,2013-11-04 00:53:00,
2013-11-03 19:58:00,18.1,16.0,30.43,NW,315,0.0,2.0,93,0.00,,,0.00,Rainwise IP-100,2013-11-04 00:58:00,
2013-11-03 20:03:00,17.9,16.0,30.43,NW,315,2.0,2.0,93,0.00,,,0.00,Rainwise IP-100,2013-11-04 01:03:00,
2013-11-03 20:08:00,17.9,16.0,30.43,NW,315,0.0,2.0,93,0.00,,,0.00,Rainwise IP-100,2013-11-04 01:08:00,
2013-11-03 20:13:00,17.6,16.0,30.43,NW,315,0.0,1.0,93,0.00,,,0.00,Rainwise IP-100,2013-11-04 01:13:00,
2013-11-03 20:18:00,17.2,16.0,30.43,NW,315,1.0,0.0,93,0.00,,,0.00,Rainwise IP-100,2013-11-04 01:18:00,
2013-11-03 20:23:00,17.2,16.0,30.43,NW,315,0.0,2.0,93,0.00,,,0.00,Rainwise IP-100,2013-11-04 01:23:00,
2013-11-03 20:28:00,17.2,16.0,30.44,NW,315,0.0,1.0,93,0.00,,,0.00,Rainwise IP-100,2013-11-04 01:28:00,
2013-11-03 20:34:00,17.0,16.0,30.44,NW,315,1.0,2.0,93,0.00,,,0.00,Rainwise IP-100,2013-11-04 01:34:00,
2013-11-03 20:39:00,16.9,16.0,30.43,NW,315,0.0,1.0,93,0.00,,,0.00,Rainwise IP-100,2013-11-04 01:39:00,
2013-11-03 20:44:00,16.6,16.0,30.44,NW,315,0.0,2.0,93,0.00,,,0.00,Rainwise IP-100,2013-11-04 01:44:00,
2013-11-03 20:49:00,16.4,14.0,30.45,NW,315,2.0,2.0,93,0.00,,,0.00,Rainwise IP-100,2013-11-04 01:49:00,
2013-11-03 20:54:00,16.4,14.0,30.45,NW,315,1.0,2.0,93,0.00,,,0.00,Rainwise IP-100,2013-11-04 01:54:00,
2013-11-03 20:59:00,16.4,14.0,30.45,NW,315,0.0,2.0,93,0.00,,,0.00,Rainwise IP-100,2013-11-04 01:59:00,
2013-11-03 21:04:00,15.9,14.0,30.45,NW,315,0.0,1.0,93,0.00,,,0.00,Rainwise IP-100,2013-11-04 02:04:00,
2013-11-03 21:09:00,15.6,14.0,30.45,NW,315,0.0,0.0,93,0.00,,,0.00,Rainwise IP-100,2013-11-04 02:09:00,
2013-11-03 21:14:00,15.5,14.0,30.45,NW,315,2.0,2.0,93,0.00,,,0.00,Rainwise IP-100,2013-11-04 02:14:00,
2013-11-03 21:19:00,15.6,14.0,30.45,NW,315,1.0,2.0,93,0.00,,,0.00,Rainwise IP-100,2013-11-04 02:19:00,
2013-11-03 21:24:00,15.5,14.0,30.45,NW,315,0.0,1.0,93,0.00,,,0.00,Rainwise IP-100,2013-11-04 02:24:00,
2013-11-03 21:29:00,15.5,14.0,30.45,NW,315,1.0,2.0,93,0.00,,,0.00,Rainwise IP-100,2013-11-04 02:29:00,
2013-11-03 21:35:00,15.3,14.0,30.46,NW,315,1.0,1.0,93,0.00,,,0.00,Rainwise IP-100,2013-11-04 02:35:00,
2013-11-03 21:40:00,15.4,14.0,30.46,NW,315,0.0,2.0,93,0.00,,,0.00,Rainwise IP-100,2013-11-04 02:40:00,
2013-11-03 21:45:00,15.3,14.0,30.46,NW,315,0.0,2.0,93,0.00,,,0.00,Rainwise IP-100,2013-11-04 02:45:00,
2013-11-03 21:50:00,15.6,14.0,30.46,NW,315,0.0,2.0,93,0.00,,,0.00,Rainwise IP-100,2013-11-04 02:50:00,
2013-11-03 21:55:00,15.7,14.0,30.46,NW,315,0.0,2.0,93,0.00,,,0.00,Rainwise IP-100,2013-11-04 02:55:00,
2013-11-03 22:00:00,15.8,14.0,30.46,ENE,67,2.0,2.0,93,0.00,,,0.00,Rainwise IP-100,2013-11-04 03:00:00,
2013-11-03 22:05:00,15.9,14.0,30.46,East,90,0.0,2.0,93,0.00,,,0.00,Rainwise IP-100,2013-11-04 03:05:00,
2013-11-03 22:10:00,15.7,14.0,30.46,East,90,0.0,1.0,93,0.00,,,0.00,Rainwise IP-100,2013-11-04 03:10:00,
2013-11-03 22:15:00,15.6,14.0,30.46,NNE,22,1.0,2.0,93,0.00,,,0.00,Rainwise IP-100,2013-11-04 03:15:00,
2013-11-03 22:20:00,15.6,14.0,30.46,NW,315,2.0,2.0,93,0.00,,,0.00,Rainwise IP-100,2013-11-04 03:20:00,
2013-11-03 22:25:00,15.4,14.0,30.46,NW,315,1.0,2.0,93,0.00,,,0.00,Rainwise IP-100,2013-11-04 03:25:00,
2013-11-03 22:30:00,15.4,14.0,30.46,NW,315,1.0,2.0,93,0.00,,,0.00,Rainwise IP-100,2013-11-04 03:30:00,
2013-11-03 22:36:00,15.3,14.0,30.46,NW,315,1.0,2.0,93,0.00,,,0.00,Rainwise IP-100,2013-11-04 03:36:00,
2013-11-03 22:41:00,14.9,14.0,30.46,NW,315,0.0,1.0,93,0.00,,,0.00,Rainwise IP-100,2013-11-04 03:41:00,
2013-11-03 22:46:00,14.7,14.0,30.46,NW,315,0.0,2.0,93,0.00,,,0.00,Rainwise IP-100,2013-11-04 03:46:00,
2013-11-03 22:51:00,14.8,14.0,30.46,NW,315,0.0,2.0,93,0.00,,,0.00,Rainwise IP-100,2013-11-04 03:51:00,
2013-11-03 22:56:00,14.6,14.0,30.46,NW,315,2.0,2.0,93,0.00,,,0.00,Rainwise IP-100,2013-11-04 03:56:00,
2013-11-03 23:01:00,14.3,11.0,30.47,NW,315,0.0,2.0,93,0.00,,,0.00,Rainwise IP-100,2013-11-04 04:01:00,
2013-11-03 23:06:00,14.2,11.0,30.47,NW,315,0.0,0.0,93,0.00,,,0.00,Rainwise IP-100,2013-11-04 04:06:00,
2013-11-03 23:11:00,14.1,11.0,30.47,NW,315,1.0,0.0,93,0.00,,,0.00,Rainwise IP-100,2013-11-04 04:11:00,
2013-11-03 23:16:00,13.9,11.0,30.48,NW,315,2.0,2.0,93,0.00,,,0.00,Rainwise IP-100,2013-11-04 04:16:00,
2013-11-03 23:21:00,13.9,11.0,30.48,NW,315,0.0,2.0,93,0.00,,,0.00,Rainwise IP-100,2013-11-04 04:21:00,
2013-11-03 23:26:00,13.8,11.0,30.48,NW,315,2.0,2.0,93,0.00,,,0.00,Rainwise IP-100,2013-11-04 04:26:00,
2013-11-03 23:31:00,13.6,11.0,30.48,NW,315,2.0,2.0,93,0.00,,,0.00,Rainwise IP-100,2013-11-04 04:31:00,
2013-11-03 23:37:00,13.5,11.0,30.48,NW,315,1.0,2.0,93,0.00,,,0.00,Rainwise IP-100,2013-11-04 04:37:00,
2013-11-03 23:42:00,13.5,11.0,30.48,NW,315,0.0,1.0,93,0.00,,,0.00,Rainwise IP-100,2013-11-04 04:42:00,
2013-11-03 23:47:00,13.7,11.0,30.48,NW,315,2.0,2.0,93,0.00,,,0.00,Rainwise IP-100,2013-11-04 04:47:00,
2013-11-03 23:52:00,13.6,11.0,30.48,NW,315,1.0,2.0,93,0.00,,,0.00,Rainwise IP-100,2013-11-04 04:52:00,
2013-11-03 23:57:00,13.6,11.0,30.48,NW,315,0.0,2.0,93,0.00,,,0.00,Rainwise IP-100,2013-11-04 04:57:00,